| time (UTC) | temp C | wind direction | speed KPH | gust KPH | rain 1hr cm | rain 24hr cm | rain mn cm | humidity % | barometer mb |
| 20260507124749 | 8 | 104 | 0.0 | 1.6 | 0.00 | 0.00 | 0.00 | 67 | 1015.6 |
| 20260507124245 | 8 | 115 | 1.6 | 1.6 | 0.00 | 0.00 | 0.00 | 69 | 1015.9 |
| 20260507123744 | 8 | 106 | 0.0 | 0.0 | 0.00 | 0.00 | 0.00 | 71 | 1016.1 |
| 20260507123241 | 7 | 104 | 1.6 | 1.6 | 0.00 | 0.00 | 0.00 | 72 | 1016.1 |
| 20260507122736 | 7 | 85 | 1.6 | 1.6 | 0.00 | 0.00 | 0.00 | 73 | 1016.2 |
| 20260507122232 | 7 | 95 | 0.0 | 1.6 | 0.00 | 0.00 | 0.00 | 74 | 1016.1 |
| 20260507121728 | 7 | 102 | 1.6 | 1.6 | 0.00 | 0.00 | 0.00 | 75 | 1016.3 |
| 20260507121224 | 7 | 100 | 0.0 | 0.0 | 0.00 | 0.00 | 0.00 | 77 | 1016.4 |
| 20260507120720 | 6 | 95 | 1.6 | 1.6 | 0.00 | 0.00 | 0.00 | 78 | 1016.1 |
| 20260507120218 | 6 | 105 | 0.0 | 1.6 | 0.00 | 0.00 | 0.00 | 82 | 1016.2 |
| 20260507115714 | 6 | 95 | 0.0 | 0.0 | 0.00 | 0.00 | 0.00 | 87 | 1016.1 |
| 20260507115209 | 5 | 92 | 0.0 | 0.0 | 0.00 | 0.00 | 0.00 | 90 | 1016.1 |
| 20260507114705 | 6 | 107 | 0.0 | 1.6 | 0.00 | 0.00 | 0.00 | 92 | 1016.1 |
| 20260507114203 | 5 | 97 | 0.0 | 0.0 | 0.00 | 0.00 | 0.00 | 94 | 1015.8 |
| 20260507113700 | 4 | 111 | 1.6 | 1.6 | 0.00 | 0.00 | 0.00 | 94 | 1016.0 |
| 20260507113157 | 4 | 100 | 0.0 | 0.0 | 0.00 | 0.00 | 0.00 | 94 | 1015.9 |
| 20260507112655 | 3 | 100 | 0.0 | 0.0 | 0.00 | 0.00 | 0.00 | 94 | 1016.0 |
| 20260507112151 | 3 | 100 | 0.0 | 0.0 | 0.00 | 0.00 | 0.00 | 94 | 1016.1 |
| 20260507111649 | 3 | 100 | 0.0 | 0.0 | 0.00 | 0.00 | 0.00 | 94 | 1016.0 |
| 20260507111145 | 3 | 100 | 0.0 | 0.0 | 0.00 | 0.00 | 0.00 | 94 | 1016.0 |
| 20260507110641 | 3 | 100 | 0.0 | 0.0 | 0.00 | 0.00 | 0.00 | 94 | 1015.6 |
| 20260507110138 | 3 | 100 | 0.0 | 0.0 | 0.00 | 0.00 | 0.00 | 94 | 1015.7 |
| 20260507105635 | 3 | 100 | 0.0 | 0.0 | 0.00 | 0.00 | 0.00 | 94 | 1015.8 |
| 20260507105131 | 3 | 100 | 0.0 | 0.0 | 0.00 | 0.00 | 0.00 | 93 | 1015.7 |
| 20260507104629 | 3 | 100 | 0.0 | 0.0 | 0.00 | 0.00 | 0.00 | 93 | 1015.7 |
| 20260507104125 | 3 | 100 | 0.0 | 0.0 | 0.00 | 0.00 | 0.00 | 93 | 1015.5 |
| 20260507103621 | 3 | 100 | 0.0 | 0.0 | 0.00 | 0.00 | 0.00 | 93 | 1015.3 |
| 20260507103118 | 3 | 100 | 0.0 | 0.0 | 0.00 | 0.00 | 0.00 | 93 | 1015.2 |
| 20260507102614 | 3 | 100 | 0.0 | 0.0 | 0.00 | 0.00 | 0.00 | 93 | 1015.2 |
| 20260507102110 | 3 | 100 | 0.0 | 0.0 | 0.00 | 0.00 | 0.00 | 93 | 1015.4 |
| 20260507101607 | 3 | 100 | 0.0 | 0.0 | 0.00 | 0.00 | 0.00 | 93 | 1015.4 |
| 20260507101102 | 3 | 100 | 0.0 | 0.0 | 0.00 | 0.00 | 0.00 | 93 | 1015.6 |
| 20260507100600 | 3 | 101 | 0.0 | 0.0 | 0.00 | 0.00 | 0.00 | 93 | 1015.3 |
| 20260507100058 | 3 | 100 | 0.0 | 0.0 | 0.00 | 0.00 | 0.00 | 93 | 1015.5 |
| 20260507095556 | 3 | 100 | 0.0 | 0.0 | 0.00 | 0.00 | 0.00 | 93 | 1015.4 |
| 20260507095052 | 3 | 101 | 0.0 | 0.0 | 0.00 | 0.00 | 0.00 | 93 | 1015.4 |
| 20260507094548 | 3 | 101 | 0.0 | 0.0 | 0.00 | 0.00 | 0.00 | 93 | 1015.4 |
| 20260507094046 | 4 | 100 | 0.0 | 0.0 | 0.00 | 0.00 | 0.00 | 93 | 1015.4 |
| 20260507093543 | 4 | 101 | 0.0 | 0.0 | 0.00 | 0.00 | 0.00 | 92 | 1015.4 |
| 20260507093042 | 4 | 101 | 0.0 | 0.0 | 0.00 | 0.00 | 0.00 | 92 | 1015.2 |
| 20260507092537 | 4 | 101 | 0.0 | 0.0 | 0.00 | 0.00 | 0.00 | 92 | 1015.2 |
| 20260507092034 | 4 | 101 | 0.0 | 0.0 | 0.00 | 0.00 | 0.00 | 92 | 1015.2 |
| 20260507091531 | 4 | 101 | 0.0 | 0.0 | 0.00 | 0.00 | 0.00 | 92 | 1015.4 |
| 20260507091027 | 4 | 100 | 0.0 | 0.0 | 0.00 | 0.00 | 0.00 | 92 | 1015.0 |
| 20260507090523 | 4 | 100 | 0.0 | 0.0 | 0.00 | 0.00 | 0.00 | 92 | 1015.4 |
| 20260507090020 | 5 | 100 | 0.0 | 0.0 | 0.00 | 0.00 | 0.00 | 91 | 1015.2 |
| 20260507085517 | 5 | 100 | 0.0 | 0.0 | 0.00 | 0.00 | 0.00 | 91 | 1015.2 |
| 20260507085014 | 5 | 101 | 0.0 | 0.0 | 0.00 | 0.00 | 0.00 | 91 | 1015.2 |
| 20260507084511 | 5 | 100 | 0.0 | 0.0 | 0.00 | 0.00 | 0.00 | 91 | 1015.1 |
| 20260507084008 | 5 | 101 | 0.0 | 0.0 | 0.00 | 0.00 | 0.00 | 91 | 1015.0 |
| 20260507083504 | 5 | 101 | 0.0 | 0.0 | 0.00 | 0.00 | 0.00 | 91 | 1015.0 |
| 20260507083001 | 5 | 100 | 0.0 | 0.0 | 0.00 | 0.00 | 0.00 | 91 | 1015.0 |
| 20260507082457 | 5 | 100 | 0.0 | 0.0 | 0.00 | 0.00 | 0.00 | 91 | 1014.9 |
| 20260507081953 | 5 | 100 | 0.0 | 0.0 | 0.00 | 0.00 | 0.00 | 91 | 1015.0 |
| 20260507081449 | 5 | 100 | 0.0 | 0.0 | 0.00 | 0.00 | 0.00 | 90 | 1015.1 |
| 20260507080947 | 5 | 100 | 0.0 | 0.0 | 0.00 | 0.00 | 0.00 | 90 | 1015.0 |
| 20260507080443 | 5 | 100 | 0.0 | 0.0 | 0.00 | 0.00 | 0.00 | 89 | 1014.9 |
| 20260507075938 | 5 | 100 | 0.0 | 0.0 | 0.00 | 0.00 | 0.00 | 89 | 1015.0 |
| 20260507075435 | 5 | 101 | 0.0 | 0.0 | 0.00 | 0.00 | 0.00 | 89 | 1015.0 |
| 20260507074931 | 5 | 100 | 0.0 | 0.0 | 0.00 | 0.00 | 0.00 | 88 | 1014.8 |
| 20260507074428 | 5 | 101 | 0.0 | 0.0 | 0.00 | 0.00 | 0.00 | 88 | 1014.9 |
| 20260507073926 | 5 | 100 | 0.0 | 0.0 | 0.00 | 0.00 | 0.00 | 88 | 1014.9 |
| 20260507073422 | 5 | 101 | 0.0 | 0.0 | 0.00 | 0.00 | 0.00 | 88 | 1015.1 |
| 20260507072919 | 5 | 101 | 0.0 | 0.0 | 0.00 | 0.00 | 0.00 | 88 | 1014.9 |
| 20260507072416 | 5 | 100 | 0.0 | 0.0 | 0.00 | 0.00 | 0.00 | 88 | 1014.7 |
| 20260507071914 | 6 | 101 | 0.0 | 0.0 | 0.00 | 0.00 | 0.00 | 88 | 1014.8 |
| 20260507071411 | 6 | 101 | 0.0 | 0.0 | 0.00 | 0.00 | 0.00 | 87 | 1015.0 |
| 20260507070907 | 5 | 100 | 0.0 | 0.0 | 0.00 | 0.00 | 0.00 | 87 | 1014.7 |
| 20260507070405 | 6 | 100 | 0.0 | 0.0 | 0.00 | 0.00 | 0.00 | 87 | 1014.9 |
| 20260507065901 | 6 | 100 | 0.0 | 0.0 | 0.00 | 0.00 | 0.00 | 86 | 1014.9 |
| 20260507065358 | 5 | 100 | 0.0 | 0.0 | 0.00 | 0.00 | 0.00 | 86 | 1014.9 |
| 20260507064855 | 5 | 100 | 0.0 | 0.0 | 0.00 | 0.00 | 0.00 | 86 | 1015.0 |
| 20260507064353 | 5 | 100 | 0.0 | 0.0 | 0.00 | 0.00 | 0.00 | 86 | 1015.0 |
| 20260507063851 | 6 | 100 | 0.0 | 0.0 | 0.00 | 0.00 | 0.00 | 86 | 1015.0 |
| 20260507063348 | 6 | 100 | 0.0 | 0.0 | 0.00 | 0.00 | 0.00 | 85 | 1015.2 |
| 20260507062844 | 6 | 101 | 0.0 | 0.0 | 0.00 | 0.00 | 0.00 | 85 | 1015.4 |
| 20260507062341 | 6 | 100 | 0.0 | 0.0 | 0.00 | 0.00 | 0.00 | 85 | 1015.3 |
| 20260507061839 | 6 | 100 | 0.0 | 0.0 | 0.00 | 0.00 | 0.00 | 85 | 1015.1 |
| 20260507061337 | 6 | 100 | 0.0 | 0.0 | 0.00 | 0.00 | 0.00 | 85 | 1015.1 |
| 20260507060835 | 6 | 100 | 0.0 | 0.0 | 0.00 | 0.00 | 0.00 | 85 | 1015.0 |
| 20260507060332 | 6 | 100 | 0.0 | 0.0 | 0.00 | 0.00 | 0.00 | 84 | 1015.1 |
| 20260507055828 | 6 | 100 | 0.0 | 0.0 | 0.00 | 0.00 | 0.00 | 84 | 1015.2 |
| 20260507055323 | 6 | 100 | 0.0 | 0.0 | 0.00 | 0.00 | 0.00 | 84 | 1015.1 |
| 20260507054820 | 6 | 101 | 0.0 | 0.0 | 0.00 | 0.00 | 0.00 | 83 | 1014.9 |
| 20260507054316 | 6 | 101 | 0.0 | 0.0 | 0.00 | 0.00 | 0.00 | 83 | 1015.1 |
| 20260507053814 | 7 | 101 | 0.0 | 0.0 | 0.00 | 0.00 | 0.00 | 83 | 1015.3 |
| 20260507053312 | 7 | 101 | 0.0 | 0.0 | 0.00 | 0.00 | 0.00 | 83 | 1015.3 |
| 20260507052811 | 7 | 101 | 0.0 | 0.0 | 0.00 | 0.00 | 0.00 | 82 | 1015.2 |
| 20260507052307 | 7 | 101 | 0.0 | 0.0 | 0.00 | 0.00 | 0.00 | 82 | 1015.2 |
| 20260507051805 | 7 | 101 | 0.0 | 0.0 | 0.00 | 0.00 | 0.00 | 82 | 1015.1 |
| 20260507051302 | 7 | 101 | 0.0 | 0.0 | 0.00 | 0.00 | 0.00 | 82 | 1015.0 |
| 20260507050758 | 7 | 100 | 0.0 | 0.0 | 0.00 | 0.00 | 0.00 | 82 | 1015.0 |
| 20260507050254 | 7 | 100 | 0.0 | 0.0 | 0.00 | 0.00 | 0.00 | 82 | 1015.3 |
| 20260507045751 | 7 | 100 | 0.0 | 0.0 | 0.00 | 0.00 | 0.00 | 82 | 1015.3 |
| 20260507045247 | 7 | 100 | 0.0 | 0.0 | 0.00 | 0.00 | 0.00 | 81 | 1015.5 |
| 20260507044746 | 7 | 100 | 0.0 | 0.0 | 0.00 | 0.00 | 0.00 | 81 | 1015.5 |
| 20260507044242 | 7 | 100 | 0.0 | 0.0 | 0.00 | 0.00 | 0.00 | 80 | 1015.5 |
| 20260507043738 | 7 | 100 | 0.0 | 0.0 | 0.00 | 0.00 | 0.00 | 80 | 1015.3 |
| 20260507043235 | 7 | 100 | 0.0 | 0.0 | 0.00 | 0.00 | 0.00 | 79 | 1015.3 |
| 20260507042731 | 7 | 100 | 0.0 | 0.0 | 0.00 | 0.00 | 0.00 | 79 | 1015.3 |
| 20260507042226 | 7 | 100 | 0.0 | 0.0 | 0.00 | 0.00 | 0.00 | 79 | 1015.4 |
| 20260507041724 | 7 | 100 | 0.0 | 0.0 | 0.00 | 0.00 | 0.00 | 78 | 1015.3 |
| 20260507041220 | 7 | 100 | 0.0 | 0.0 | 0.00 | 0.00 | 0.00 | 77 | 1015.4 |
| 20260507040717 | 8 | 100 | 0.0 | 0.0 | 0.00 | 0.00 | 0.00 | 76 | 1015.3 |
| 20260507040213 | 8 | 100 | 0.0 | 0.0 | 0.00 | 0.00 | 0.00 | 75 | 1015.2 |
| 20260507035709 | 8 | 100 | 0.0 | 0.0 | 0.00 | 1.24 | 1.24 | 75 | 1015.2 |
| 20260507035205 | 8 | 100 | 0.0 | 0.0 | 0.00 | 1.24 | 1.24 | 75 | 1015.3 |
| 20260507034702 | 8 | 100 | 0.0 | 0.0 | 0.00 | 1.24 | 1.24 | 75 | 1015.2 |
| 20260507034200 | 8 | 100 | 0.0 | 0.0 | 0.00 | 1.24 | 1.24 | 76 | 1015.2 |
| 20260507033658 | 8 | 100 | 0.0 | 0.0 | 0.00 | 1.24 | 1.24 | 75 | 1015.3 |
| 20260507033155 | 9 | 100 | 0.0 | 0.0 | 0.00 | 1.24 | 1.24 | 74 | 1015.1 |
| 20260507032652 | 9 | 100 | 0.0 | 0.0 | 0.00 | 1.24 | 1.24 | 73 | 1015.3 |
| 20260507032148 | 9 | 100 | 0.0 | 0.0 | 0.00 | 1.24 | 1.24 | 74 | 1015.2 |
| 20260507031645 | 8 | 100 | 0.0 | 0.0 | 0.00 | 1.24 | 1.24 | 73 | 1015.1 |
| 20260507031141 | 8 | 100 | 0.0 | 0.0 | 0.00 | 1.24 | 1.24 | 73 | 1015.2 |
| 20260507030638 | 8 | 100 | 0.0 | 0.0 | 0.00 | 1.24 | 1.24 | 74 | 1015.3 |
| 20260507030136 | 8 | 100 | 0.0 | 0.0 | 0.00 | 1.24 | 1.24 | 74 | 1015.4 |
| 20260507025633 | 8 | 100 | 0.0 | 0.0 | 0.00 | 1.24 | 1.24 | 75 | 1015.1 |
| 20260507025130 | 8 | 100 | 0.0 | 0.0 | 0.00 | 1.24 | 1.24 | 74 | 1015.4 |
| 20260507024628 | 8 | 100 | 0.0 | 0.0 | 0.00 | 1.24 | 1.24 | 73 | 1015.2 |
| 20260507024125 | 8 | 100 | 0.0 | 0.0 | 0.00 | 1.24 | 1.24 | 73 | 1015.2 |
| 20260507023620 | 8 | 100 | 0.0 | 0.0 | 0.00 | 1.24 | 1.24 | 73 | 1015.2 |
| 20260507023118 | 8 | 100 | 0.0 | 0.0 | 0.00 | 1.24 | 1.24 | 72 | 1015.1 |
| 20260507022615 | 8 | 100 | 0.0 | 0.0 | 0.00 | 1.24 | 1.24 | 71 | 1015.1 |
| 20260507022110 | 8 | 100 | 0.0 | 0.0 | 0.00 | 1.24 | 1.24 | 70 | 1014.9 |
| 20260507021607 | 9 | 100 | 0.0 | 0.0 | 0.00 | 1.24 | 1.24 | 71 | 1015.0 |
| 20260507021103 | 9 | 100 | 0.0 | 0.0 | 0.00 | 1.24 | 1.24 | 71 | 1015.0 |
| 20260507020602 | 10 | 100 | 0.0 | 0.0 | 0.00 | 1.24 | 1.24 | 69 | 1015.2 |
| 20260507020057 | 10 | 100 | 0.0 | 0.0 | 0.00 | 1.24 | 1.24 | 67 | 1015.0 |
| 20260507015555 | 10 | 100 | 0.0 | 0.0 | 0.00 | 1.24 | 1.24 | 68 | 1015.1 |
| 20260507015047 | 10 | 100 | 0.0 | 0.0 | 0.00 | 1.24 | 1.24 | 67 | 1015.1 |
| 20260507014544 | 10 | 100 | 0.0 | 0.0 | 0.00 | 1.24 | 1.24 | 67 | 1015.2 |
| 20260507014039 | 10 | 100 | 0.0 | 0.0 | 0.00 | 1.24 | 1.24 | 68 | 1014.8 |
| 20260507013536 | 10 | 100 | 0.0 | 0.0 | 0.00 | 1.24 | 1.24 | 69 | 1014.7 |
| 20260507013033 | 10 | 100 | 0.0 | 0.0 | 0.00 | 1.24 | 1.24 | 69 | 1014.8 |
| 20260507012530 | 10 | 100 | 0.0 | 0.0 | 0.00 | 1.24 | 1.24 | 69 | 1014.4 |
| 20260507012026 | 10 | 100 | 0.0 | 0.0 | 0.00 | 1.24 | 1.24 | 69 | 1014.7 |
| 20260507011524 | 10 | 100 | 0.0 | 0.0 | 0.00 | 1.24 | 1.24 | 69 | 1014.7 |
| 20260507011020 | 10 | 100 | 0.0 | 0.0 | 0.00 | 1.24 | 1.24 | 68 | 1014.4 |
| 20260507010514 | 10 | 100 | 0.0 | 0.0 | 0.00 | 1.24 | 1.24 | 68 | 1014.1 |
| 20260507010011 | 10 | 100 | 0.0 | 0.0 | 0.00 | 1.24 | 1.24 | 66 | 1014.6 |
| 20260507005509 | 11 | 100 | 0.0 | 0.0 | 0.00 | 1.24 | 1.24 | 66 | 1014.8 |
| 20260507005005 | 11 | 100 | 0.0 | 0.0 | 0.00 | 1.24 | 1.24 | 65 | 1014.4 |
| 20260507004502 | 11 | 100 | 0.0 | 0.0 | 0.00 | 1.24 | 1.24 | 65 | 1014.4 |
| 20260507003959 | 11 | 100 | 0.0 | 0.0 | 0.00 | 1.24 | 1.24 | 65 | 1014.3 |
| 20260507003454 | 11 | 100 | 0.0 | 0.0 | 0.00 | 1.24 | 1.24 | 64 | 1014.6 |
| 20260507002949 | 11 | 100 | 0.0 | 0.0 | 0.00 | 1.24 | 1.24 | 62 | 1014.4 |
| 20260507002447 | 11 | 100 | 0.0 | 0.0 | 0.00 | 1.24 | 1.24 | 62 | 1014.2 |
| 20260507001943 | 12 | 100 | 0.0 | 0.0 | 0.00 | 1.24 | 1.24 | 64 | 1014.0 |
| 20260507001440 | 12 | 100 | 0.0 | 0.0 | 0.00 | 1.24 | 1.24 | 62 | 1014.1 |
| 20260507000938 | 12 | 100 | 0.0 | 0.0 | 0.00 | 1.24 | 1.24 | 60 | 1014.3 |
| 20260507000435 | 12 | 100 | 0.0 | 0.0 | 0.00 | 1.24 | 1.24 | 60 | 1013.8 |
| 20260506235929 | 12 | 79 | 0.0 | 0.0 | 0.00 | 1.24 | 1.24 | 61 | 1014.0 |
| 20260506235426 | 13 | 79 | 0.0 | 0.0 | 0.00 | 1.24 | 1.24 | 61 | 1013.8 |
| 20260506234916 | 13 | 74 | 0.0 | 1.6 | 0.00 | 1.24 | 1.24 | 58 | 1014.1 |
| 20260506234414 | 13 | 77 | 0.0 | 1.6 | 0.00 | 1.24 | 1.24 | 60 | 1013.9 |
| 20260506233911 | 13 | 110 | 1.6 | 1.6 | 0.00 | 1.24 | 1.24 | 57 | 1013.9 |
| 20260506233407 | 13 | 84 | 0.0 | 0.0 | 0.00 | 1.24 | 1.24 | 58 | 1014.0 |
| 20260506232904 | 13 | 98 | 0.0 | 0.0 | 0.00 | 1.24 | 1.24 | 58 | 1014.0 |
| 20260506232400 | 13 | 75 | 1.6 | 3.2 | 0.00 | 1.24 | 1.24 | 54 | 1013.9 |
| 20260506231856 | 13 | 85 | 0.0 | 0.0 | 0.00 | 1.24 | 1.24 | 54 | 1013.9 |
| 20260506231354 | 13 | 67 | 4.8 | 4.8 | 0.00 | 1.24 | 1.24 | 53 | 1013.6 |
| 20260506230851 | 13 | 80 | 0.0 | 0.0 | 0.00 | 1.24 | 1.24 | 57 | 1013.6 |
| 20260506230348 | 13 | 74 | 1.6 | 1.6 | 0.00 | 1.24 | 1.24 | 54 | 1013.5 |
| 20260506225844 | 14 | 58 | 3.2 | 4.8 | 0.00 | 1.24 | 1.24 | 52 | 1013.8 |
| 20260506225342 | 15 | 70 | 1.6 | 1.6 | 0.00 | 1.24 | 1.24 | 52 | 1013.7 |
| 20260506224838 | 15 | 76 | 1.6 | 1.6 | 0.00 | 1.24 | 1.24 | 52 | 1013.8 |
| 20260506224336 | 14 | 81 | 1.6 | 1.6 | 0.00 | 1.24 | 1.24 | 57 | 1013.6 |
| 20260506223832 | 14 | 128 | 1.6 | 1.6 | 0.00 | 1.24 | 1.24 | 54 | 1013.7 |
| 20260506223327 | 14 | 65 | 3.2 | 3.2 | 0.00 | 1.24 | 1.24 | 51 | 1013.4 |
| 20260506222825 | 14 | 75 | 0.0 | 0.0 | 0.00 | 1.24 | 1.24 | 54 | 1013.7 |
| 20260506222320 | 14 | 82 | 0.0 | 0.0 | 0.00 | 1.24 | 1.24 | 53 | 1013.8 |
| 20260506221818 | 14 | 115 | 0.0 | 0.0 | 0.00 | 1.24 | 1.24 | 52 | 1014.1 |
| 20260506221315 | 13 | 74 | 3.2 | 3.2 | 0.00 | 1.24 | 1.24 | 52 | 1013.8 |
| 20260506220813 | 13 | 121 | 0.0 | 0.0 | 0.00 | 1.24 | 1.24 | 58 | 1013.9 |
| 20260506220308 | 14 | 114 | 0.0 | 0.0 | 0.00 | 1.24 | 1.24 | 60 | 1013.9 |
| 20260506215805 | 14 | 65 | 1.6 | 3.2 | 0.00 | 1.24 | 1.24 | 52 | 1014.2 |
| 20260506215300 | 14 | 89 | 3.2 | 3.2 | 0.00 | 1.24 | 1.24 | 57 | 1013.9 |
| 20260506214756 | 14 | 76 | 0.0 | 0.0 | 0.00 | 1.24 | 1.24 | 54 | 1014.3 |
| 20260506214254 | 14 | 82 | 1.6 | 1.6 | 0.00 | 1.24 | 1.24 | 53 | 1014.1 |
| 20260506213752 | 14 | 105 | 0.0 | 0.0 | 0.00 | 1.24 | 1.24 | 55 | 1014.1 |
| 20260506213248 | 13 | 105 | 0.0 | 1.6 | 0.00 | 1.24 | 1.24 | 56 | 1014.0 |
| 20260506212746 | 14 | 121 | 3.2 | 3.2 | 0.00 | 1.24 | 1.24 | 55 | 1013.8 |
| 20260506212242 | 14 | 84 | 1.6 | 1.6 | 0.00 | 1.24 | 1.24 | 54 | 1014.0 |
| 20260506211737 | 13 | 63 | 3.2 | 3.2 | 0.00 | 1.24 | 1.24 | 57 | 1014.0 |
| 20260506211234 | 14 | 48 | 4.8 | 4.8 | 0.00 | 1.24 | 1.24 | 56 | 1014.0 |
| 20260506210731 | 15 | 101 | 0.0 | 1.6 | 0.00 | 1.24 | 1.24 | 56 | 1013.8 |
| 20260506210228 | 15 | 78 | 0.0 | 1.6 | 0.00 | 1.24 | 1.24 | 55 | 1013.8 |
| 20260506205725 | 15 | 88 | 1.6 | 1.6 | 0.00 | 1.24 | 1.24 | 52 | 1013.5 |
| 20260506205220 | 15 | 80 | 1.6 | 3.2 | 0.00 | 1.24 | 1.24 | 50 | 1013.6 |
| 20260506204717 | 15 | 84 | 1.6 | 1.6 | 0.00 | 1.24 | 1.24 | 48 | 1013.6 |
| 20260506204214 | 15 | 66 | 3.2 | 4.8 | 0.00 | 1.24 | 1.24 | 51 | 1013.8 |
| 20260506203712 | 15 | 58 | 6.4 | 8.0 | 0.00 | 1.24 | 1.24 | 49 | 1013.6 |
| 20260506203209 | 15 | 87 | 0.0 | 0.0 | 0.00 | 1.24 | 1.24 | 51 | 1013.7 |
| 20260506202707 | 15 | 60 | 3.2 | 3.2 | 0.00 | 1.24 | 1.24 | 52 | 1013.7 |
| 20260506202203 | 15 | 78 | 1.6 | 3.2 | 0.00 | 1.24 | 1.24 | 51 | 1013.9 |
| 20260506201700 | 14 | 221 | 4.8 | 4.8 | 0.00 | 1.24 | 1.24 | 50 | 1013.9 |
| 20260506201156 | 14 | 111 | 1.6 | 1.6 | 0.00 | 1.24 | 1.24 | 52 | 1013.9 |
| 20260506200653 | 14 | 97 | 0.0 | 1.6 | 0.00 | 1.24 | 1.24 | 58 | 1013.6 |
| 20260506200150 | 14 | 117 | 1.6 | 1.6 | 0.00 | 1.24 | 1.24 | 58 | 1013.6 |
| 20260506195647 | 14 | 90 | 0.0 | 0.0 | 0.00 | 1.24 | 1.24 | 62 | 1014.0 |
| 20260506195143 | 14 | 116 | 1.6 | 1.6 | 0.00 | 1.24 | 1.24 | 56 | 1013.8 |
| 20260506194641 | 14 | 79 | 1.6 | 1.6 | 0.00 | 1.24 | 1.24 | 55 | 1013.7 |
| 20260506194137 | 14 | 58 | 3.2 | 3.2 | 0.00 | 1.24 | 1.24 | 52 | 1014.0 |
| 20260506193635 | 15 | 73 | 3.2 | 3.2 | 0.00 | 1.24 | 1.24 | 50 | 1013.5 |
| 20260506193132 | 14 | 73 | 3.2 | 3.2 | 0.00 | 1.24 | 1.24 | 58 | 1013.7 |
| 20260506192628 | 14 | 208 | 4.8 | 4.8 | 0.00 | 1.24 | 1.24 | 53 | 1013.4 |
| 20260506192124 | 15 | 262 | 1.6 | 3.2 | 0.00 | 1.24 | 1.24 | 58 | 1013.5 |
| 20260506191621 | 15 | 67 | 3.2 | 3.2 | 0.00 | 1.24 | 1.24 | 54 | 1013.4 |
| 20260506191117 | 15 | 41 | 3.2 | 3.2 | 0.00 | 1.24 | 1.24 | 56 | 1013.1 |
| 20260506190615 | 15 | 82 | 1.6 | 1.6 | 0.00 | 1.24 | 1.24 | 56 | 1013.3 |
| 20260506190111 | 15 | 74 | 1.6 | 3.2 | 0.00 | 1.24 | 1.24 | 53 | 1013.2 |
| 20260506185609 | 15 | 70 | 3.2 | 4.8 | 0.00 | 1.24 | 1.24 | 50 | 1013.5 |
| 20260506185105 | 16 | 79 | 4.8 | 4.8 | 0.00 | 1.24 | 1.24 | 47 | 1013.1 |
| 20260506184602 | 15 | 69 | 3.2 | 3.2 | 0.00 | 1.24 | 1.24 | 53 | 1013.4 |
| 20260506184100 | 16 | 171 | 3.2 | 4.8 | 0.00 | 1.24 | 1.24 | 52 | 1013.2 |
| 20260506183556 | 16 | 89 | 1.6 | 1.6 | 0.00 | 1.24 | 1.24 | 52 | 1013.2 |
| 20260506183052 | 16 | 103 | 1.6 | 1.6 | 0.00 | 1.24 | 1.24 | 47 | 1013.2 |
| 20260506182550 | 16 | 273 | 4.8 | 4.8 | 0.00 | 1.24 | 1.24 | 49 | 1013.2 |
| 20260506182047 | 16 | 94 | 1.6 | 1.6 | 0.00 | 1.24 | 1.24 | 55 | 1013.3 |
| 20260506181545 | 16 | 53 | 3.2 | 4.8 | 0.00 | 1.24 | 1.24 | 50 | 1013.2 |
| 20260506181041 | 16 | 56 | 4.8 | 4.8 | 0.00 | 1.24 | 1.24 | 47 | 1013.1 |
| 20260506180538 | 16 | 132 | 3.2 | 3.2 | 0.00 | 1.24 | 1.24 | 51 | 1013.3 |
| 20260506180034 | 16 | 117 | 4.8 | 4.8 | 0.00 | 1.24 | 1.24 | 51 | 1013.2 |
| 20260506175531 | 16 | 73 | 1.6 | 3.2 | 0.00 | 1.24 | 1.24 | 50 | 1013.6 |
| 20260506175027 | 16 | 74 | 3.2 | 3.2 | 0.00 | 1.24 | 1.24 | 51 | 1013.4 |
| 20260506174526 | 15 | 108 | 1.6 | 3.2 | 0.00 | 1.24 | 1.24 | 50 | 1013.4 |
| 20260506174022 | 15 | 63 | 4.8 | 4.8 | 0.00 | 1.24 | 1.24 | 51 | 1013.6 |
| 20260506173520 | 15 | 72 | 3.2 | 3.2 | 0.00 | 1.24 | 1.24 | 55 | 1013.8 |
| 20260506173016 | 15 | 72 | 1.6 | 3.2 | 0.00 | 1.24 | 1.24 | 54 | 1013.8 |
| 20260506172514 | 15 | 62 | 1.6 | 3.2 | 0.00 | 1.24 | 1.24 | 52 | 1013.6 |
| 20260506172010 | 15 | 317 | 8.0 | 9.7 | 0.00 | 1.24 | 1.24 | 49 | 1013.5 |
| 20260506171507 | 15 | 90 | 1.6 | 3.2 | 0.00 | 1.24 | 1.24 | 60 | 1013.6 |
| 20260506171005 | 15 | 99 | 1.6 | 1.6 | 0.00 | 1.24 | 1.24 | 52 | 1013.9 |
| 20260506170501 | 15 | 74 | 3.2 | 3.2 | 0.00 | 1.24 | 1.24 | 57 | 1013.7 |
| 20260506165954 | 14 | 78 | 4.8 | 4.8 | 0.00 | 1.24 | 1.24 | 56 | 1013.8 |
| 20260506165452 | 13 | 85 | 0.0 | 1.6 | 0.00 | 1.24 | 1.24 | 56 | 1013.7 |
| 20260506164948 | 13 | 348 | 6.4 | 9.7 | 0.00 | 1.24 | 1.24 | 55 | 1014.0 |
| 20260506164444 | 13 | 345 | 4.8 | 4.8 | 0.00 | 1.24 | 1.24 | 61 | 1013.9 |
| 20260506163942 | 13 | 99 | 0.0 | 1.6 | 0.00 | 1.24 | 1.24 | 59 | 1014.0 |
| 20260506163437 | 13 | 130 | 1.6 | 3.2 | 0.00 | 1.24 | 1.24 | 57 | 1014.1 |
| 20260506162932 | 13 | 73 | 1.6 | 3.2 | 0.00 | 1.24 | 1.24 | 57 | 1013.7 |
| 20260506162430 | 13 | 45 | 8.0 | 9.7 | 0.00 | 1.24 | 1.24 | 56 | 1013.9 |
| 20260506161927 | 14 | 25 | 9.7 | 11.3 | 0.00 | 1.24 | 1.24 | 53 | 1013.9 |
| 20260506161426 | 13 | 72 | 3.2 | 3.2 | 0.00 | 1.24 | 1.24 | 62 | 1013.9 |
| 20260506160923 | 13 | 67 | 3.2 | 3.2 | 0.00 | 1.24 | 1.24 | 57 | 1013.9 |
| 20260506160420 | 13 | 45 | 8.0 | 11.3 | 0.00 | 1.24 | 1.24 | 59 | 1013.9 |
| 20260506155917 | 13 | 58 | 6.4 | 8.0 | 0.00 | 1.24 | 1.24 | 60 | 1013.9 |
| 20260506155414 | 13 | 144 | 3.2 | 3.2 | 0.00 | 1.24 | 1.24 | 64 | 1013.8 |
| 20260506153537 | 12 | 90 | 1.6 | 1.6 | 0.00 | 1.24 | 1.24 | 68 | 1013.6 |
| 20260506153034 | 12 | 149 | 1.6 | 3.2 | 0.00 | 1.24 | 1.24 | 70 | 1013.6 |
| 20260506152531 | 11 | 13 | 4.8 | 8.0 | 0.00 | 1.24 | 1.24 | 67 | 1013.6 |
| 20260506152029 | 12 | 300 | 4.8 | 8.0 | 0.00 | 1.24 | 1.24 | 67 | 1013.8 |
| 20260506151526 | 11 | 62 | 3.2 | 3.2 | 0.00 | 1.24 | 1.24 | 66 | 1014.0 |
| 20260506151023 | 11 | 82 | 1.6 | 1.6 | 0.00 | 1.24 | 1.24 | 70 | 1013.8 |
| 20260506150520 | 11 | 50 | 3.2 | 3.2 | 0.00 | 1.24 | 1.24 | 66 | 1013.7 |
| 20260506150017 | 11 | 18 | 1.6 | 3.2 | 0.00 | 1.24 | 1.24 | 70 | 1013.1 |
| 20260506145514 | 11 | 22 | 3.2 | 3.2 | 0.00 | 1.24 | 1.24 | 72 | 1013.3 |
| 20260506145011 | 11 | 242 | 4.8 | 4.8 | 0.00 | 1.24 | 1.24 | 73 | 1013.3 |
| 20260506144508 | 10 | 313 | 6.4 | 8.0 | 0.00 | 1.24 | 1.24 | 73 | 1013.3 |
| 20260506144005 | 10 | 79 | 3.2 | 3.2 | 0.00 | 1.24 | 1.24 | 74 | 1012.8 |
| 20260506143503 | 10 | 76 | 1.6 | 1.6 | 0.00 | 1.24 | 1.24 | 77 | 1013.0 |
| 20260506143001 | 10 | 51 | 4.8 | 4.8 | 0.00 | 1.24 | 1.24 | 75 | 1012.7 |
| 20260506142458 | 10 | 87 | 1.6 | 1.6 | 0.00 | 1.24 | 1.24 | 78 | 1012.5 |
| 20260506141956 | 10 | 75 | 1.6 | 1.6 | 0.00 | 1.24 | 1.24 | 80 | 1012.7 |
| 20260506141454 | 10 | 78 | 1.6 | 3.2 | 0.00 | 1.24 | 1.24 | 82 | 1012.9 |
| 20260506140952 | 10 | 58 | 1.6 | 3.2 | 0.00 | 1.24 | 1.24 | 80 | 1012.8 |
| 20260506140448 | 10 | 28 | 3.2 | 4.8 | 0.00 | 1.24 | 1.24 | 81 | 1012.6 |
| 20260506135945 | 10 | 84 | 4.8 | 4.8 | 0.00 | 1.24 | 1.24 | 80 | 1012.6 |
| 20260506135443 | 10 | 73 | 1.6 | 3.2 | 0.00 | 1.24 | 1.24 | 82 | 1012.5 |
| 20260506134938 | 9 | 82 | 0.0 | 1.6 | 0.00 | 1.24 | 1.24 | 83 | 1012.5 |
| 20260506134435 | 9 | 77 | 1.6 | 1.6 | 0.00 | 1.24 | 1.24 | 84 | 1012.5 |
| 20260506133932 | 10 | 40 | 3.2 | 3.2 | 0.00 | 1.24 | 1.24 | 84 | 1012.6 |
| 20260506133429 | 10 | 337 | 4.8 | 8.0 | 0.00 | 1.24 | 1.24 | 84 | 1012.3 |
| 20260506132926 | 8 | 51 | 1.6 | 3.2 | 0.00 | 1.24 | 1.24 | 86 | 1012.3 |
| 20260506132423 | 9 | 19 | 4.8 | 9.7 | 0.00 | 1.24 | 1.24 | 86 | 1012.3 |
| 20260506131920 | 8 | 90 | 0.0 | 0.0 | 0.00 | 1.24 | 1.24 | 88 | 1012.4 |
| 20260506131416 | 8 | 87 | 1.6 | 1.6 | 0.00 | 1.24 | 1.24 | 89 | 1012.1 |
| 20260506130913 | 8 | 71 | 1.6 | 1.6 | 0.00 | 1.24 | 1.24 | 89 | 1012.0 |
| 20260506130410 | 8 | 99 | 1.6 | 1.6 | 0.00 | 1.24 | 1.24 | 90 | 1012.0 |
| 20260506125908 | 8 | 75 | 1.6 | 3.2 | 0.00 | 1.24 | 1.24 | 90 | 1011.9 |
| 20260506125406 | 7 | 79 | 1.6 | 1.6 | 0.00 | 1.24 | 1.24 | 91 | 1012.2 |